GEFSCGP_prec_meanprecacc_240.txt.gz
Total_Precipitation_Accumulation
0.00 0.01 0.01 0.02 0.02 0.03 0.07 0.12 0.20 0.21 0.21 0.30 0.47 0.71 0.85 0.83 0.88 1.03 1.15 1.35 1.39 1.43 1.70 2.16 2.81 3.48 4.26 5.38 6.05 6.19 5.90 5.18 4.66 4.25 4.00 3.70 3.43 3.15 2.67 2.24 1.97 1.85 1.77 1.70
0.01 0.02 0.02 0.02 0.02 0.03 0.06 0.11 0.20 0.20 0.17 0.20 0.44 0.79 0.91 0.94 1.00 1.00 1.07 1.15 1.09 1.24 1.57 2.17 2.94 3.74 4.40 4.96 5.32 5.41 5.01 4.25 3.75 3.48 3.41 3.12 2.90 2.56 2.35 2.11 2.06 1.76 1.70 1.69
0.03 0.04 0.02 0.02 0.03 0.05 0.09 0.11 0.17 0.20 0.18 0.21 0.44 0.95 1.16 1.07 1.05 1.03 0.93 0.92 1.02 1.25 1.78 2.52 3.33 4.07 4.42 4.44 4.21 3.92 3.73 3.33 3.20 3.14 2.95 2.73 2.67 2.37 2.19 1.99 1.90 1.62 1.45 1.43
0.02 0.03 0.03 0.03 0.05 0.06 0.10 0.08 0.07 0.09 0.15 0.38 0.53 1.07 1.24 1.22 1.15 1.01 0.98 0.98 1.10 1.38 1.92 2.61 3.14 3.38 3.53 3.45 3.15 2.95 2.88 2.80 2.74 2.64 2.52 2.23 2.10 2.05 1.88 1.78 1.79 1.68 1.47 1.40
0.03 0.03 0.04 0.04 0.05 0.05 0.06 0.05 0.05 0.10 0.22 0.42 0.57 0.93 1.28 1.26 1.32 0.91 0.75 0.84 0.94 1.17 1.49 1.69 1.89 2.04 2.16 2.20 2.35 2.42 2.53 2.65 2.55 2.48 2.47 2.37 2.10 2.04 1.99 1.98 2.06 1.92 1.72 1.50
0.03 0.03 0.03 0.04 0.04 0.05 0.05 0.07 0.14 0.24 0.42 0.78 0.80 0.96 1.30 1.30 1.18 0.78 0.55 0.56 0.75 0.85 0.92 1.02 1.11 1.23 1.45 1.51 1.71 1.92 2.05 2.20 2.35 2.38 2.23 2.14 2.07 2.10 2.13 2.08 1.91 1.72 1.58 1.48
0.09 0.08 0.06 0.07 0.06 0.07 0.06 0.11 0.35 0.69 1.05 1.12 0.69 0.79 1.21 1.15 0.83 0.54 0.44 0.42 0.43 0.57 0.73 0.87 1.00 1.11 1.30 1.25 1.32 1.56 1.63 1.65 1.79 1.84 1.80 1.86 1.98 2.02 1.90 1.79 1.73 1.57 1.33 1.30
0.15 0.15 0.10 0.07 0.08 0.08 0.07 0.08 0.22 0.42 0.54 0.72 0.76 1.24 1.46 0.87 0.58 0.44 0.39 0.35 0.34 0.47 0.65 0.75 0.76 0.84 0.96 0.93 1.05 1.21 1.31 1.37 1.43 1.55 1.65 1.61 1.74 1.76 1.67 1.74 1.63 1.49 1.27 1.17
0.06 0.09 0.08 0.07 0.09 0.09 0.08 0.06 0.09 0.14 0.23 0.54 0.95 1.31 1.29 0.78 0.59 0.41 0.36 0.39 0.42 0.39 0.53 0.59 0.54 0.55 0.67 0.77 0.91 1.02 1.10 1.23 1.26 1.40 1.47 1.43 1.52 1.60 1.65 1.65 1.54 1.38 1.38 1.24
0.04 0.04 0.06 0.06 0.08 0.09 0.08 0.09 0.10 0.14 0.24 0.48 0.85 1.34 1.61 1.17 0.66 0.48 0.46 0.47 0.50 0.42 0.45 0.48 0.48 0.44 0.51 0.66 0.92 1.01 1.02 1.14 1.18 1.28 1.28 1.16 1.32 1.44 1.57 1.52 1.44 1.41 1.43 1.36
0.04 0.04 0.06 0.07 0.08 0.10 0.10 0.10 0.12 0.14 0.17 0.28 0.66 1.00 0.90 0.89 0.65 0.62 0.61 0.55 0.53 0.48 0.50 0.47 0.46 0.46 0.43 0.54 0.76 0.83 0.96 1.08 1.13 1.21 1.31 1.35 1.35 1.29 1.40 1.42 1.39 1.43 1.47 1.40
0.04 0.05 0.06 0.09 0.11 0.12 0.13 0.13 0.14 0.16 0.15 0.16 0.32 0.55 0.55 0.71 0.67 0.67 0.73 0.67 0.62 0.46 0.41 0.43 0.47 0.51 0.47 0.48 0.58 0.72 0.89 1.04 1.09 1.16 1.28 1.37 1.50 1.46 1.42 1.40 1.43 1.46 1.55 1.60
0.04 0.05 0.09 0.17 0.23 0.19 0.13 0.12 0.13 0.14 0.11 0.13 0.32 0.52 0.50 0.56 0.61 0.58 0.71 0.71 0.62 0.57 0.52 0.51 0.55 0.59 0.61 0.58 0.61 0.73 0.87 1.03 1.13 1.22 1.29 1.44 1.52 1.43 1.38 1.49 1.57 1.59 1.72 1.84
0.04 0.04 0.07 0.18 0.26 0.29 0.21 0.14 0.14 0.12 0.11 0.12 0.21 0.45 0.51 0.57 0.58 0.64 0.72 0.74 0.72 0.69 0.61 0.54 0.52 0.55 0.65 0.79 0.81 0.87 1.11 1.12 1.12 1.31 1.45 1.52 1.56 1.51 1.49 1.58 1.68 1.69 1.76 1.91
0.04 0.04 0.05 0.06 0.10 0.16 0.20 0.18 0.14 0.10 0.08 0.11 0.20 0.37 0.48 0.60 0.68 0.71 0.71 0.66 0.62 0.62 0.58 0.50 0.49 0.53 0.63 0.76 0.83 0.95 1.02 1.20 1.25 1.44 1.59 1.64 1.75 1.78 1.81 1.90 1.91 1.84 1.84 1.87
0.07 0.06 0.05 0.04 0.08 0.12 0.15 0.17 0.13 0.10 0.08 0.08 0.18 0.40 0.50 0.55 0.61 0.71 0.68 0.68 0.66 0.59 0.56 0.58 0.62 0.64 0.67 0.72 0.79 0.86 0.92 1.12 1.34 1.64 1.96 1.99 2.02 2.02 2.09 2.24 2.32 2.22 2.19 2.28
0.13 0.11 0.09 0.08 0.11 0.12 0.17 0.17 0.15 0.16 0.15 0.17 0.25 0.37 0.46 0.54 0.64 0.84 0.82 0.76 0.77 0.74 0.73 0.77 0.87 0.86 0.82 0.82 0.86 0.94 1.04 1.22 1.50 1.80 2.06 2.21 2.25 2.27 2.32 2.42 2.44 2.37 2.47 2.64
0.20 0.20 0.16 0.13 0.17 0.23 0.21 0.21 0.20 0.24 0.26 0.30 0.38 0.41 0.55 0.76 0.86 1.03 1.06 0.93 0.89 0.82 0.78 0.84 0.98 1.02 0.98 0.98 1.06 1.19 1.36 1.58 1.86 2.06 2.19 2.30 2.30 2.30 2.34 2.38 2.30 2.32 2.46 2.53
0.21 0.25 0.26 0.23 0.26 0.26 0.30 0.33 0.35 0.40 0.52 0.52 0.60 0.67 0.78 0.90 0.88 0.96 0.91 0.81 0.79 0.76 0.83 0.90 1.01 1.12 1.19 1.22 1.31 1.40 1.53 1.72 1.96 2.10 2.12 2.10 2.17 2.24 2.28 2.30 2.34 2.38 2.37 2.25
0.31 0.32 0.40 0.36 0.39 0.42 0.46 0.48 0.44 0.52 0.97 0.98 0.94 0.89 0.86 0.93 1.15 1.13 0.92 0.82 0.83 0.80 0.81 0.94 0.97 1.05 1.17 1.28 1.31 1.40 1.58 1.77 1.96 2.09 2.10 2.06 2.14 2.21 2.25 2.30 2.36 2.31 2.22 2.16
0.52 0.55 0.52 0.51 0.55 0.52 0.50 0.46 0.45 0.80 1.14 1.10 1.09 1.12 1.04 1.12 1.20 1.17 1.05 1.03 0.96 0.91 0.89 0.93 1.00 1.07 1.12 1.22 1.30 1.41 1.55 1.66 1.78 1.90 2.00 2.13 2.27 2.31 2.30 2.32 2.29 2.22 2.12 2.13
0.64 0.68 0.68 0.68 0.85 0.90 0.65 0.54 0.77 1.05 0.94 1.10 1.22 1.21 1.19 1.14 1.07 1.10 1.11 1.09 1.04 0.98 0.97 1.01 1.08 1.21 1.28 1.33 1.36 1.46 1.47 1.55 1.71 1.77 1.88 1.92 2.03 2.13 2.11 2.16 2.08 2.08 2.05 2.02
0.81 0.81 0.84 0.95 1.08 0.90 0.74 0.76 0.85 0.91 0.99 1.07 1.19 1.25 1.21 1.25 1.20 1.06 1.06 1.03 1.19 1.24 1.18 1.13 1.12 1.18 1.26 1.37 1.47 1.56 1.54 1.51 1.55 1.64 1.76 1.85 1.91 2.05 2.10 2.11 2.01 1.93 1.89 1.82
1.01 0.82 0.92 1.17 1.24 1.08 0.98 0.94 0.87 0.86 0.92 0.98 1.12 1.24 1.31 1.29 1.15 1.07 1.01 0.99 0.98 1.01 1.01 1.06 1.07 1.13 1.31 1.32 1.39 1.51 1.58 1.54 1.58 1.65 1.67 1.76 1.83 1.91 2.09 2.11 1.96 1.83 1.71 1.64
1.15 1.15 1.16 1.36 1.40 1.20 1.08 1.01 1.05 1.03 0.98 0.97 1.06 1.14 1.16 1.10 1.08 1.08 1.03 0.97 0.94 0.90 0.88 0.89 0.93 0.97 1.06 1.10 1.15 1.26 1.37 1.42 1.40 1.38 1.34 1.34 1.46 1.62 1.80 1.85 1.80 1.63 1.53 1.60
1.08 1.31 1.46 1.53 1.36 1.35 1.36 1.24 1.21 1.26 1.26 1.22 1.18 1.18 1.10 1.02 1.00 0.96 0.90 0.85 0.82 0.77 0.73 0.77 0.80 0.83 0.86 0.92 1.02 1.14 1.32 1.45 1.45 1.35 1.25 1.22 1.23 1.32 1.52 1.72 1.80 1.66 1.44 1.48

GEFSCGP_prec_meanprecacc_246.txt.gz
Total_Precipitation_Accumulation
0.01 0.01 0.01 0.02 0.02 0.04 0.07 0.12 0.20 0.22 0.21 0.30 0.48 0.73 0.86 0.83 0.89 1.04 1.15 1.35 1.39 1.43 1.70 2.17 2.81 3.48 4.26 5.38 6.06 6.20 5.92 5.20 4.68 4.27 4.01 3.72 3.45 3.17 2.69 2.27 2.01 1.88 1.79 1.73
0.01 0.02 0.02 0.02 0.02 0.04 0.06 0.12 0.20 0.20 0.17 0.20 0.44 0.80 0.92 0.94 1.00 1.00 1.07 1.16 1.09 1.24 1.58 2.17 2.94 3.74 4.40 4.96 5.33 5.41 5.03 4.26 3.77 3.50 3.43 3.15 2.94 2.59 2.39 2.16 2.10 1.82 1.74 1.73
0.03 0.04 0.02 0.02 0.03 0.05 0.09 0.11 0.17 0.21 0.18 0.22 0.44 0.96 1.16 1.08 1.05 1.03 0.93 0.92 1.03 1.25 1.78 2.53 3.33 4.07 4.42 4.45 4.22 3.94 3.75 3.35 3.22 3.16 2.98 2.76 2.70 2.40 2.24 2.05 1.95 1.67 1.50 1.47
0.02 0.04 0.03 0.03 0.05 0.06 0.10 0.08 0.07 0.09 0.16 0.39 0.54 1.07 1.24 1.23 1.15 1.01 0.98 0.98 1.10 1.38 1.92 2.62 3.15 3.38 3.54 3.47 3.18 2.99 2.90 2.82 2.76 2.67 2.54 2.25 2.12 2.07 1.93 1.84 1.85 1.73 1.53 1.45
0.03 0.03 0.04 0.04 0.05 0.05 0.06 0.05 0.05 0.10 0.22 0.42 0.58 0.93 1.29 1.26 1.33 0.91 0.76 0.84 0.95 1.18 1.49 1.69 1.89 2.05 2.18 2.22 2.37 2.45 2.57 2.68 2.59 2.51 2.48 2.37 2.11 2.06 2.03 2.02 2.10 1.97 1.77 1.55
0.03 0.03 0.04 0.04 0.04 0.05 0.05 0.07 0.14 0.24 0.42 0.79 0.80 0.96 1.30 1.30 1.18 0.78 0.55 0.57 0.76 0.86 0.94 1.03 1.13 1.25 1.48 1.53 1.73 1.94 2.07 2.23 2.39 2.41 2.24 2.15 2.09 2.12 2.16 2.10 1.93 1.74 1.61 1.51
0.09 0.08 0.06 0.07 0.06 0.07 0.06 0.11 0.35 0.70 1.06 1.12 0.69 0.79 1.22 1.16 0.84 0.54 0.44 0.42 0.44 0.59 0.76 0.90 1.02 1.12 1.32 1.27 1.34 1.57 1.65 1.67 1.82 1.86 1.82 1.88 2.00 2.05 1.93 1.82 1.74 1.58 1.34 1.32
0.15 0.15 0.10 0.07 0.09 0.08 0.07 0.08 0.22 0.42 0.54 0.72 0.76 1.25 1.47 0.87 0.59 0.44 0.39 0.36 0.36 0.49 0.67 0.77 0.77 0.86 0.98 0.95 1.07 1.23 1.32 1.38 1.44 1.56 1.66 1.62 1.76 1.78 1.70 1.75 1.63 1.49 1.28 1.18
0.06 0.09 0.08 0.07 0.09 0.09 0.08 0.06 0.09 0.14 0.23 0.55 0.95 1.31 1.29 0.78 0.60 0.42 0.37 0.40 0.43 0.41 0.54 0.61 0.55 0.56 0.68 0.79 0.92 1.04 1.11 1.23 1.26 1.41 1.48 1.44 1.54 1.61 1.66 1.66 1.55 1.38 1.38 1.24
0.04 0.04 0.06 0.06 0.08 0.09 0.08 0.09 0.10 0.14 0.24 0.48 0.85 1.35 1.61 1.18 0.67 0.49 0.46 0.47 0.51 0.43 0.47 0.50 0.50 0.46 0.52 0.68 0.93 1.01 1.03 1.15 1.19 1.28 1.29 1.17 1.33 1.45 1.57 1.52 1.44 1.41 1.43 1.37
0.04 0.04 0.06 0.07 0.08 0.10 0.11 0.10 0.12 0.15 0.17 0.28 0.66 1.00 0.90 0.89 0.65 0.63 0.62 0.56 0.54 0.49 0.51 0.49 0.49 0.48 0.45 0.56 0.77 0.84 0.97 1.09 1.15 1.21 1.31 1.36 1.36 1.30 1.41 1.42 1.40 1.43 1.47 1.41
0.04 0.05 0.06 0.09 0.11 0.12 0.13 0.13 0.14 0.16 0.15 0.16 0.32 0.56 0.56 0.72 0.68 0.67 0.73 0.67 0.62 0.46 0.42 0.44 0.49 0.53 0.48 0.49 0.60 0.74 0.91 1.06 1.11 1.18 1.30 1.38 1.51 1.47 1.42 1.40 1.44 1.47 1.56 1.61
0.04 0.05 0.09 0.17 0.23 0.19 0.13 0.12 0.13 0.14 0.11 0.13 0.32 0.53 0.51 0.57 0.61 0.59 0.72 0.72 0.62 0.57 0.53 0.52 0.57 0.61 0.63 0.60 0.63 0.74 0.89 1.05 1.17 1.25 1.33 1.47 1.54 1.44 1.38 1.49 1.58 1.61 1.75 1.89
0.04 0.04 0.07 0.18 0.26 0.29 0.22 0.15 0.14 0.12 0.11 0.12 0.21 0.45 0.51 0.58 0.58 0.65 0.73 0.74 0.73 0.70 0.62 0.56 0.54 0.59 0.69 0.83 0.84 0.89 1.13 1.15 1.15 1.34 1.48 1.55 1.58 1.53 1.51 1.59 1.70 1.73 1.80 1.96
0.04 0.04 0.05 0.06 0.10 0.16 0.20 0.18 0.14 0.10 0.08 0.11 0.20 0.37 0.48 0.60 0.69 0.72 0.72 0.67 0.63 0.63 0.60 0.52 0.51 0.56 0.67 0.80 0.86 0.98 1.06 1.24 1.29 1.48 1.63 1.67 1.77 1.79 1.83 1.94 1.95 1.88 1.88 1.91
0.07 0.06 0.05 0.04 0.08 0.12 0.15 0.18 0.13 0.10 0.08 0.09 0.18 0.40 0.51 0.56 0.62 0.72 0.69 0.69 0.67 0.60 0.58 0.60 0.64 0.67 0.70 0.75 0.82 0.89 0.97 1.18 1.39 1.67 1.99 2.01 2.04 2.04 2.12 2.29 2.36 2.26 2.22 2.30
0.13 0.11 0.09 0.08 0.11 0.12 0.17 0.17 0.15 0.16 0.15 0.17 0.25 0.38 0.46 0.54 0.64 0.85 0.83 0.77 0.78 0.75 0.74 0.79 0.89 0.88 0.85 0.86 0.89 0.97 1.07 1.25 1.54 1.83 2.08 2.22 2.27 2.29 2.36 2.45 2.47 2.41 2.50 2.66
0.20 0.20 0.16 0.13 0.17 0.23 0.21 0.22 0.21 0.24 0.26 0.30 0.38 0.41 0.55 0.76 0.87 1.03 1.07 0.93 0.90 0.83 0.79 0.85 1.00 1.05 1.01 1.00 1.07 1.20 1.36 1.59 1.87 2.08 2.21 2.32 2.33 2.34 2.37 2.41 2.33 2.36 2.49 2.57
0.21 0.25 0.26 0.23 0.26 0.27 0.30 0.34 0.36 0.40 0.53 0.52 0.60 0.67 0.78 0.90 0.88 0.97 0.91 0.82 0.80 0.77 0.84 0.92 1.03 1.15 1.21 1.23 1.33 1.40 1.53 1.73 1.97 2.12 2.15 2.13 2.21 2.29 2.32 2.33 2.37 2.41 2.41 2.30
0.32 0.32 0.41 0.36 0.39 0.42 0.46 0.48 0.44 0.52 0.97 0.98 0.95 0.90 0.86 0.93 1.15 1.13 0.92 0.83 0.84 0.83 0.85 0.97 0.99 1.07 1.19 1.29 1.33 1.42 1.59 1.79 1.98 2.12 2.13 2.09 2.19 2.29 2.32 2.36 2.41 2.35 2.27 2.20
0.53 0.55 0.52 0.52 0.56 0.53 0.51 0.46 0.46 0.81 1.15 1.10 1.09 1.13 1.04 1.12 1.20 1.18 1.06 1.04 0.99 0.96 0.96 0.96 1.03 1.09 1.13 1.24 1.33 1.44 1.57 1.69 1.81 1.93 2.04 2.16 2.33 2.40 2.41 2.44 2.40 2.32 2.22 2.22
0.65 0.69 0.69 0.69 0.86 0.91 0.66 0.55 0.78 1.06 0.95 1.11 1.24 1.22 1.21 1.16 1.08 1.10 1.12 1.10 1.07 1.02 1.02 1.04 1.11 1.24 1.31 1.36 1.39 1.48 1.49 1.57 1.74 1.79 1.91 1.97 2.10 2.22 2.23 2.30 2.25 2.25 2.20 2.13
0.83 0.83 0.87 0.96 1.09 0.91 0.76 0.78 0.87 0.93 1.01 1.10 1.22 1.28 1.23 1.27 1.21 1.08 1.07 1.04 1.20 1.26 1.20 1.15 1.14 1.22 1.29 1.40 1.50 1.58 1.56 1.53 1.57 1.66 1.79 1.89 1.96 2.12 2.16 2.18 2.12 2.05 2.01 1.92
1.02 0.83 0.93 1.19 1.26 1.10 1.00 0.97 0.91 0.91 0.97 1.02 1.15 1.25 1.33 1.31 1.17 1.08 1.02 0.99 0.99 1.03 1.03 1.08 1.10 1.16 1.33 1.34 1.41 1.52 1.59 1.56 1.60 1.67 1.69 1.78 1.85 1.94 2.11 2.13 1.99 1.86 1.75 1.67
1.15 1.16 1.18 1.38 1.42 1.22 1.11 1.06 1.11 1.06 1.01 1.00 1.08 1.15 1.17 1.12 1.10 1.09 1.05 0.99 0.97 0.93 0.90 0.91 0.95 0.99 1.08 1.11 1.16 1.27 1.38 1.43 1.42 1.39 1.36 1.36 1.48 1.64 1.82 1.87 1.81 1.65 1.54 1.61
1.08 1.32 1.47 1.55 1.37 1.37 1.38 1.29 1.25 1.30 1.29 1.23 1.19 1.19 1.11 1.04 1.01 0.98 0.93 0.87 0.85 0.79 0.75 0.79 0.82 0.84 0.88 0.94 1.04 1.15 1.34 1.46 1.46 1.36 1.26 1.23 1.24 1.33 1.53 1.74 1.81 1.67 1.45 1.49

GEFSCGP_prec_meanprecacc_252.txt.gz
Total_Precipitation_Accumulation
0.01 0.01 0.01 0.02 0.02 0.04 0.07 0.12 0.20 0.22 0.21 0.30 0.48 0.73 0.86 0.83 0.89 1.04 1.15 1.35 1.39 1.43 1.70 2.17 2.82 3.48 4.27 5.39 6.06 6.21 5.93 5.23 4.73 4.32 4.07 3.79 3.54 3.25 2.76 2.36 2.08 1.96 1.86 1.79
0.01 0.02 0.02 0.02 0.02 0.04 0.06 0.12 0.20 0.20 0.17 0.20 0.44 0.80 0.92 0.94 1.00 1.00 1.07 1.16 1.09 1.24 1.58 2.17 2.94 3.75 4.40 4.97 5.34 5.42 5.04 4.28 3.80 3.54 3.48 3.21 3.02 2.70 2.48 2.23 2.18 1.87 1.79 1.78
0.03 0.04 0.02 0.02 0.03 0.05 0.09 0.11 0.17 0.21 0.18 0.22 0.44 0.96 1.16 1.08 1.05 1.03 0.94 0.92 1.03 1.25 1.79 2.53 3.33 4.08 4.43 4.45 4.23 3.95 3.75 3.37 3.24 3.18 3.00 2.79 2.74 2.47 2.31 2.10 2.01 1.72 1.55 1.54
0.02 0.04 0.03 0.03 0.05 0.06 0.10 0.08 0.07 0.09 0.16 0.39 0.54 1.07 1.24 1.23 1.15 1.01 0.98 0.98 1.10 1.38 1.93 2.62 3.15 3.39 3.55 3.48 3.18 3.00 2.92 2.83 2.78 2.69 2.58 2.28 2.15 2.11 1.97 1.89 1.91 1.79 1.58 1.53
0.03 0.03 0.04 0.04 0.05 0.05 0.06 0.05 0.05 0.10 0.22 0.42 0.58 0.93 1.29 1.26 1.33 0.91 0.76 0.84 0.95 1.18 1.49 1.70 1.90 2.06 2.20 2.23 2.38 2.46 2.58 2.69 2.60 2.53 2.50 2.40 2.13 2.09 2.06 2.06 2.15 2.02 1.80 1.59
0.03 0.03 0.04 0.04 0.04 0.05 0.05 0.07 0.14 0.24 0.42 0.79 0.80 0.96 1.30 1.30 1.18 0.78 0.55 0.57 0.76 0.86 0.94 1.04 1.13 1.25 1.48 1.54 1.74 1.95 2.08 2.24 2.41 2.43 2.26 2.17 2.11 2.15 2.19 2.13 1.96 1.77 1.63 1.53
0.09 0.08 0.06 0.07 0.06 0.07 0.06 0.11 0.35 0.70 1.06 1.12 0.69 0.79 1.22 1.16 0.84 0.54 0.44 0.42 0.44 0.59 0.76 0.90 1.02 1.12 1.33 1.27 1.35 1.57 1.65 1.68 1.83 1.88 1.84 1.89 2.02 2.07 1.95 1.85 1.77 1.60 1.36 1.34
0.15 0.15 0.10 0.07 0.09 0.08 0.07 0.08 0.22 0.42 0.54 0.72 0.76 1.25 1.47 0.87 0.59 0.44 0.39 0.36 0.36 0.49 0.67 0.77 0.78 0.86 0.98 0.95 1.08 1.23 1.32 1.39 1.46 1.57 1.68 1.64 1.78 1.80 1.71 1.77 1.65 1.51 1.29 1.19
0.06 0.09 0.08 0.07 0.09 0.09 0.08 0.06 0.09 0.14 0.23 0.55 0.95 1.31 1.29 0.78 0.60 0.42 0.37 0.40 0.43 0.41 0.55 0.62 0.56 0.56 0.68 0.79 0.92 1.04 1.11 1.24 1.27 1.42 1.49 1.45 1.55 1.63 1.67 1.68 1.57 1.39 1.40 1.25
0.04 0.04 0.06 0.06 0.08 0.09 0.08 0.09 0.10 0.14 0.24 0.48 0.85 1.35 1.61 1.18 0.67 0.49 0.47 0.47 0.51 0.43 0.47 0.51 0.51 0.46 0.53 0.68 0.93 1.02 1.03 1.16 1.19 1.29 1.30 1.18 1.34 1.46 1.59 1.54 1.46 1.42 1.45 1.39
0.04 0.04 0.06 0.07 0.08 0.10 0.11 0.10 0.12 0.15 0.17 0.28 0.66 1.00 0.90 0.89 0.65 0.63 0.62 0.56 0.54 0.49 0.51 0.49 0.49 0.48 0.46 0.57 0.77 0.84 0.98 1.10 1.15 1.22 1.32 1.37 1.37 1.30 1.41 1.43 1.41 1.44 1.49 1.44
0.04 0.05 0.06 0.09 0.11 0.12 0.13 0.13 0.14 0.16 0.15 0.16 0.32 0.56 0.56 0.72 0.68 0.67 0.73 0.67 0.62 0.46 0.42 0.44 0.49 0.53 0.49 0.49 0.60 0.74 0.92 1.07 1.12 1.19 1.31 1.39 1.52 1.48 1.42 1.40 1.44 1.48 1.59 1.65
0.04 0.05 0.09 0.17 0.23 0.19 0.13 0.12 0.13 0.14 0.11 0.13 0.32 0.53 0.51 0.57 0.61 0.59 0.72 0.72 0.62 0.57 0.53 0.52 0.57 0.61 0.63 0.61 0.63 0.75 0.90 1.06 1.17 1.26 1.34 1.48 1.55 1.45 1.39 1.50 1.59 1.62 1.76 1.92
0.04 0.04 0.07 0.18 0.26 0.29 0.22 0.15 0.14 0.12 0.11 0.12 0.21 0.45 0.52 0.58 0.58 0.65 0.73 0.74 0.73 0.70 0.62 0.56 0.55 0.59 0.70 0.83 0.85 0.91 1.15 1.17 1.17 1.36 1.50 1.58 1.60 1.55 1.52 1.60 1.71 1.75 1.82 1.98
0.04 0.04 0.05 0.06 0.10 0.16 0.20 0.18 0.14 0.10 0.08 0.11 0.20 0.37 0.48 0.60 0.69 0.72 0.72 0.67 0.63 0.63 0.60 0.52 0.51 0.56 0.67 0.81 0.87 0.99 1.07 1.26 1.31 1.49 1.64 1.69 1.79 1.81 1.85 1.95 1.96 1.89 1.89 1.92
0.07 0.06 0.05 0.05 0.08 0.12 0.15 0.18 0.13 0.10 0.09 0.09 0.18 0.40 0.51 0.56 0.62 0.72 0.69 0.69 0.67 0.60 0.58 0.60 0.64 0.67 0.70 0.76 0.84 0.91 0.99 1.20 1.41 1.69 2.00 2.02 2.06 2.06 2.14 2.30 2.38 2.27 2.23 2.31
0.13 0.11 0.09 0.08 0.11 0.12 0.17 0.17 0.15 0.16 0.15 0.17 0.25 0.38 0.46 0.54 0.64 0.85 0.83 0.77 0.78 0.75 0.74 0.79 0.89 0.89 0.85 0.87 0.90 0.98 1.09 1.26 1.55 1.84 2.10 2.24 2.28 2.30 2.37 2.47 2.49 2.42 2.51 2.67
0.20 0.20 0.16 0.13 0.17 0.23 0.21 0.22 0.21 0.24 0.26 0.30 0.38 0.41 0.55 0.76 0.87 1.03 1.07 0.94 0.90 0.83 0.79 0.86 1.00 1.05 1.02 1.01 1.08 1.21 1.38 1.60 1.88 2.08 2.22 2.33 2.34 2.35 2.39 2.43 2.34 2.37 2.51 2.58
0.21 0.26 0.26 0.23 0.26 0.27 0.30 0.34 0.36 0.41 0.53 0.52 0.60 0.68 0.78 0.90 0.88 0.97 0.91 0.82 0.80 0.77 0.84 0.92 1.04 1.15 1.22 1.24 1.34 1.41 1.55 1.74 1.97 2.13 2.15 2.14 2.23 2.31 2.34 2.35 2.40 2.44 2.44 2.32
0.32 0.33 0.41 0.36 0.39 0.43 0.47 0.49 0.45 0.53 0.98 0.98 0.96 0.90 0.87 0.94 1.15 1.14 0.92 0.84 0.85 0.84 0.86 0.98 1.00 1.08 1.20 1.31 1.35 1.44 1.61 1.81 2.00 2.14 2.14 2.10 2.21 2.30 2.35 2.41 2.46 2.41 2.32 2.24
0.53 0.56 0.53 0.52 0.56 0.53 0.51 0.47 0.47 0.82 1.15 1.11 1.10 1.14 1.05 1.13 1.21 1.18 1.06 1.05 0.99 0.97 0.97 0.97 1.04 1.10 1.15 1.27 1.36 1.47 1.60 1.72 1.83 1.95 2.05 2.17 2.34 2.42 2.44 2.48 2.45 2.37 2.26 2.26
0.65 0.70 0.70 0.70 0.87 0.92 0.66 0.55 0.79 1.07 0.95 1.12 1.25 1.24 1.22 1.16 1.08 1.11 1.12 1.11 1.08 1.03 1.03 1.05 1.12 1.25 1.32 1.39 1.43 1.52 1.52 1.60 1.76 1.81 1.93 1.99 2.12 2.24 2.25 2.32 2.27 2.27 2.21 2.15
0.83 0.83 0.88 0.97 1.10 0.92 0.76 0.79 0.88 0.94 1.02 1.12 1.26 1.34 1.28 1.30 1.23 1.09 1.09 1.06 1.22 1.28 1.22 1.17 1.16 1.23 1.31 1.41 1.51 1.59 1.57 1.54 1.59 1.68 1.80 1.91 1.98 2.14 2.19 2.20 2.13 2.07 2.02 1.93
1.02 0.84 0.94 1.20 1.27 1.10 1.00 0.98 0.93 0.93 0.99 1.06 1.20 1.31 1.41 1.38 1.21 1.11 1.04 1.01 1.00 1.04 1.05 1.09 1.12 1.18 1.35 1.35 1.41 1.52 1.59 1.57 1.61 1.69 1.71 1.80 1.87 1.96 2.13 2.15 2.00 1.88 1.76 1.68
1.16 1.17 1.18 1.38 1.43 1.23 1.12 1.08 1.14 1.12 1.07 1.06 1.13 1.21 1.28 1.21 1.13 1.12 1.07 1.00 0.98 0.94 0.91 0.92 0.97 1.01 1.10 1.13 1.18 1.28 1.39 1.44 1.43 1.41 1.37 1.38 1.51 1.67 1.84 1.89 1.83 1.66 1.56 1.63
1.09 1.33 1.48 1.56 1.38 1.39 1.40 1.31 1.31 1.39 1.36 1.29 1.25 1.27 1.21 1.09 1.06 1.02 0.95 0.90 0.87 0.81 0.77 0.81 0.84 0.87 0.90 0.96 1.05 1.17 1.35 1.47 1.47 1.37 1.27 1.25 1.26 1.36 1.56 1.76 1.82 1.69 1.47 1.50

GEFSCGP_prec_meanprecacc_258.txt.gz
Total_Precipitation_Accumulation
0.01 0.01 0.01 0.02 0.03 0.04 0.07 0.13 0.21 0.23 0.22 0.30 0.48 0.73 0.87 0.85 0.89 1.04 1.16 1.36 1.39 1.44 1.71 2.18 2.82 3.49 4.27 5.40 6.08 6.23 5.98 5.29 4.78 4.37 4.12 3.85 3.60 3.32 2.84 2.44 2.15 2.02 1.91 1.85
0.01 0.02 0.02 0.02 0.02 0.04 0.06 0.12 0.21 0.20 0.17 0.20 0.44 0.81 0.93 0.95 1.01 1.00 1.07 1.16 1.09 1.25 1.59 2.18 2.95 3.75 4.41 4.97 5.34 5.44 5.06 4.32 3.83 3.59 3.52 3.26 3.07 2.75 2.54 2.30 2.25 1.94 1.85 1.84
0.03 0.04 0.02 0.02 0.03 0.05 0.09 0.11 0.17 0.21 0.18 0.22 0.45 0.98 1.19 1.09 1.06 1.03 0.94 0.92 1.03 1.25 1.79 2.54 3.34 4.08 4.43 4.46 4.24 3.95 3.77 3.39 3.27 3.23 3.04 2.83 2.79 2.53 2.36 2.15 2.06 1.76 1.59 1.58
0.02 0.04 0.03 0.03 0.05 0.06 0.10 0.08 0.07 0.10 0.16 0.39 0.54 1.09 1.27 1.24 1.17 1.02 0.99 0.98 1.10 1.38 1.93 2.62 3.16 3.39 3.55 3.48 3.19 3.01 2.93 2.86 2.80 2.72 2.63 2.34 2.21 2.19 2.04 1.94 1.95 1.84 1.62 1.57
0.03 0.03 0.04 0.04 0.05 0.05 0.06 0.05 0.05 0.10 0.22 0.42 0.59 0.94 1.30 1.27 1.33 0.92 0.78 0.85 0.95 1.18 1.49 1.70 1.90 2.07 2.21 2.23 2.38 2.46 2.59 2.72 2.63 2.56 2.55 2.47 2.19 2.15 2.12 2.11 2.20 2.07 1.85 1.63
0.03 0.03 0.04 0.04 0.04 0.05 0.05 0.07 0.14 0.24 0.42 0.79 0.80 0.96 1.31 1.31 1.19 0.79 0.59 0.58 0.76 0.86 0.94 1.04 1.13 1.25 1.48 1.54 1.74 1.95 2.10 2.25 2.42 2.45 2.29 2.21 2.16 2.20 2.24 2.19 2.01 1.82 1.69 1.58
0.10 0.08 0.06 0.07 0.06 0.07 0.06 0.12 0.37 0.72 1.06 1.13 0.70 0.79 1.22 1.16 0.84 0.56 0.47 0.44 0.44 0.59 0.76 0.90 1.02 1.12 1.33 1.27 1.35 1.58 1.66 1.69 1.85 1.90 1.86 1.92 2.07 2.12 2.00 1.89 1.81 1.65 1.40 1.38
0.15 0.15 0.10 0.07 0.09 0.08 0.08 0.11 0.24 0.44 0.55 0.73 0.77 1.25 1.47 0.87 0.59 0.45 0.40 0.38 0.37 0.49 0.67 0.78 0.78 0.86 0.98 0.95 1.08 1.23 1.33 1.41 1.47 1.58 1.70 1.67 1.82 1.83 1.74 1.81 1.68 1.54 1.33 1.22
0.07 0.09 0.08 0.07 0.09 0.09 0.08 0.07 0.10 0.16 0.24 0.55 0.96 1.32 1.29 0.79 0.60 0.42 0.37 0.40 0.44 0.41 0.55 0.62 0.56 0.57 0.69 0.79 0.92 1.04 1.12 1.25 1.28 1.42 1.50 1.47 1.57 1.66 1.71 1.71 1.60 1.42 1.43 1.28
0.04 0.04 0.06 0.06 0.08 0.09 0.08 0.09 0.11 0.14 0.24 0.48 0.86 1.37 1.63 1.18 0.67 0.49 0.47 0.47 0.51 0.44 0.48 0.51 0.51 0.46 0.53 0.68 0.94 1.02 1.03 1.16 1.20 1.29 1.31 1.19 1.36 1.48 1.63 1.58 1.49 1.45 1.48 1.42
0.04 0.04 0.06 0.07 0.08 0.10 0.11 0.10 0.12 0.15 0.17 0.28 0.67 1.02 0.92 0.90 0.66 0.64 0.62 0.56 0.54 0.49 0.52 0.49 0.49 0.48 0.46 0.57 0.78 0.84 0.98 1.10 1.16 1.23 1.33 1.39 1.39 1.32 1.44 1.46 1.44 1.49 1.53 1.49
0.04 0.05 0.06 0.09 0.11 0.12 0.13 0.14 0.14 0.16 0.15 0.16 0.33 0.56 0.57 0.72 0.68 0.68 0.74 0.67 0.62 0.46 0.42 0.44 0.49 0.53 0.49 0.50 0.60 0.74 0.92 1.08 1.14 1.20 1.33 1.42 1.55 1.51 1.45 1.43 1.46 1.51 1.63 1.70
0.04 0.05 0.09 0.17 0.23 0.19 0.13 0.12 0.13 0.14 0.11 0.13 0.32 0.53 0.51 0.58 0.62 0.59 0.72 0.72 0.63 0.57 0.53 0.52 0.57 0.62 0.65 0.63 0.64 0.75 0.90 1.07 1.19 1.28 1.36 1.50 1.57 1.48 1.42 1.53 1.62 1.65 1.80 1.96
0.04 0.04 0.07 0.18 0.27 0.29 0.22 0.15 0.14 0.12 0.11 0.13 0.22 0.46 0.52 0.58 0.58 0.65 0.73 0.75 0.74 0.71 0.62 0.57 0.55 0.60 0.71 0.85 0.87 0.93 1.17 1.18 1.18 1.37 1.51 1.59 1.62 1.56 1.53 1.62 1.74 1.77 1.85 2.02
0.04 0.04 0.05 0.06 0.10 0.16 0.20 0.18 0.14 0.10 0.08 0.12 0.20 0.38 0.48 0.60 0.69 0.72 0.72 0.67 0.64 0.64 0.61 0.52 0.51 0.57 0.69 0.83 0.90 1.01 1.09 1.27 1.32 1.50 1.65 1.70 1.80 1.83 1.86 1.96 1.98 1.91 1.91 1.94
0.07 0.06 0.05 0.05 0.08 0.12 0.15 0.18 0.13 0.10 0.09 0.09 0.19 0.41 0.51 0.56 0.62 0.72 0.70 0.69 0.68 0.64 0.61 0.61 0.65 0.68 0.71 0.77 0.86 0.93 1.02 1.23 1.43 1.71 2.02 2.05 2.07 2.07 2.15 2.32 2.39 2.29 2.24 2.33
0.13 0.11 0.09 0.08 0.11 0.12 0.17 0.17 0.15 0.16 0.15 0.18 0.27 0.39 0.47 0.54 0.64 0.85 0.84 0.78 0.79 0.79 0.78 0.80 0.90 0.89 0.86 0.87 0.91 1.00 1.11 1.30 1.58 1.87 2.12 2.25 2.30 2.32 2.39 2.48 2.50 2.44 2.53 2.69
0.20 0.20 0.17 0.13 0.18 0.24 0.21 0.22 0.21 0.25 0.27 0.31 0.39 0.42 0.56 0.76 0.87 1.03 1.08 0.94 0.92 0.85 0.80 0.87 1.01 1.06 1.02 1.01 1.08 1.22 1.40 1.63 1.91 2.12 2.25 2.35 2.36 2.38 2.41 2.45 2.37 2.40 2.53 2.61
0.22 0.26 0.27 0.24 0.27 0.27 0.31 0.34 0.36 0.41 0.54 0.53 0.61 0.68 0.79 0.90 0.89 0.98 0.92 0.82 0.83 0.82 0.87 0.94 1.04 1.16 1.22 1.25 1.35 1.43 1.57 1.78 2.01 2.17 2.19 2.18 2.27 2.35 2.38 2.39 2.43 2.47 2.47 2.35
0.33 0.33 0.42 0.37 0.40 0.44 0.48 0.50 0.46 0.54 1.01 1.01 0.97 0.91 0.87 0.94 1.16 1.15 0.93 0.84 0.86 0.89 0.90 0.99 1.02 1.09 1.21 1.33 1.36 1.46 1.65 1.86 2.06 2.21 2.23 2.19 2.26 2.35 2.39 2.45 2.50 2.46 2.36 2.27
0.53 0.56 0.54 0.54 0.58 0.56 0.53 0.49 0.50 0.88 1.23 1.15 1.12 1.15 1.07 1.14 1.22 1.19 1.07 1.05 1.00 0.98 0.99 0.99 1.06 1.11 1.16 1.29 1.39 1.50 1.64 1.78 1.92 2.07 2.17 2.26 2.39 2.46 2.48 2.52 2.48 2.41 2.29 2.29
0.66 0.71 0.71 0.72 0.91 0.98 0.68 0.57 0.82 1.12 1.01 1.15 1.27 1.26 1.24 1.18 1.10 1.12 1.13 1.12 1.09 1.04 1.05 1.06 1.13 1.26 1.33 1.41 1.46 1.55 1.56 1.65 1.81 1.86 1.98 2.03 2.15 2.27 2.28 2.36 2.30 2.31 2.26 2.19
0.85 0.85 0.89 0.99 1.13 0.96 0.79 0.81 0.90 0.96 1.04 1.14 1.29 1.37 1.31 1.32 1.24 1.10 1.10 1.07 1.24 1.31 1.24 1.19 1.17 1.25 1.33 1.43 1.53 1.62 1.60 1.57 1.62 1.72 1.85 1.95 2.02 2.18 2.24 2.26 2.19 2.12 2.07 1.98
1.04 0.85 0.96 1.21 1.28 1.13 1.03 1.00 0.94 0.94 1.01 1.10 1.25 1.35 1.43 1.39 1.22 1.12 1.06 1.03 1.03 1.07 1.07 1.12 1.14 1.20 1.38 1.37 1.43 1.54 1.61 1.60 1.64 1.72 1.75 1.84 1.91 2.01 2.19 2.21 2.08 1.96 1.84 1.76
1.17 1.18 1.20 1.41 1.44 1.24 1.13 1.08 1.15 1.15 1.11 1.11 1.18 1.24 1.31 1.26 1.17 1.16 1.11 1.03 1.00 0.96 0.94 0.96 1.01 1.05 1.14 1.17 1.22 1.31 1.42 1.48 1.46 1.43 1.40 1.42 1.55 1.72 1.90 1.94 1.89 1.72 1.62 1.70
1.09 1.34 1.50 1.58 1.39 1.40 1.41 1.32 1.33 1.43 1.40 1.33 1.32 1.39 1.36 1.21 1.13 1.09 1.00 0.94 0.90 0.84 0.79 0.84 0.87 0.90 0.94 1.01 1.11 1.22 1.39 1.52 1.52 1.41 1.31 1.29 1.30 1.40 1.60 1.81 1.88 1.74 1.53 1.56

GEFSCGP_prec_meanprecacc_264.txt.gz
Total_Precipitation_Accumulation
0.01 0.01 0.01 0.02 0.03 0.04 0.08 0.15 0.24 0.25 0.23 0.32 0.50 0.75 0.90 0.87 0.91 1.05 1.17 1.36 1.39 1.44 1.71 2.19 2.83 3.51 4.29 5.42 6.09 6.23 5.98 5.29 4.79 4.38 4.13 3.86 3.61 3.34 2.86 2.48 2.24 2.12 1.98 1.90
0.01 0.02 0.02 0.02 0.03 0.04 0.07 0.13 0.22 0.22 0.18 0.22 0.47 0.85 0.98 0.99 1.04 1.02 1.09 1.17 1.10 1.26 1.60 2.19 2.95 3.77 4.44 4.99 5.35 5.44 5.07 4.32 3.84 3.60 3.53 3.27 3.08 2.77 2.56 2.33 2.29 1.98 1.89 1.89
0.03 0.04 0.02 0.02 0.03 0.05 0.09 0.11 0.18 0.22 0.19 0.22 0.46 1.01 1.24 1.13 1.09 1.07 0.97 0.94 1.04 1.28 1.81 2.55 3.35 4.11 4.45 4.47 4.26 3.96 3.78 3.40 3.28 3.23 3.04 2.83 2.80 2.54 2.38 2.17 2.08 1.78 1.61 1.62
0.02 0.04 0.03 0.03 0.05 0.06 0.10 0.09 0.07 0.10 0.16 0.40 0.55 1.11 1.30 1.28 1.21 1.06 1.04 1.04 1.15 1.43 1.95 2.64 3.17 3.40 3.55 3.49 3.20 3.01 2.94 2.86 2.81 2.73 2.63 2.34 2.21 2.20 2.05 1.95 1.96 1.85 1.63 1.61
0.03 0.04 0.05 0.05 0.05 0.06 0.06 0.06 0.06 0.11 0.23 0.43 0.60 0.95 1.32 1.30 1.37 0.94 0.81 0.90 0.99 1.23 1.52 1.71 1.92 2.08 2.21 2.23 2.38 2.47 2.60 2.72 2.63 2.57 2.55 2.47 2.19 2.15 2.12 2.11 2.21 2.08 1.86 1.66
0.03 0.03 0.04 0.04 0.04 0.05 0.05 0.07 0.14 0.25 0.42 0.80 0.82 0.99 1.34 1.33 1.23 0.83 0.62 0.63 0.79 0.90 0.96 1.06 1.15 1.26 1.49 1.54 1.74 1.95 2.10 2.26 2.43 2.46 2.30 2.21 2.16 2.21 2.25 2.19 2.02 1.83 1.69 1.59
0.10 0.08 0.06 0.07 0.07 0.07 0.06 0.13 0.37 0.73 1.07 1.14 0.72 0.84 1.24 1.18 0.86 0.58 0.49 0.46 0.48 0.66 0.81 0.94 1.04 1.13 1.33 1.28 1.35 1.58 1.66 1.69 1.85 1.90 1.87 1.93 2.07 2.12 2.00 1.89 1.81 1.65 1.41 1.39
0.15 0.15 0.10 0.07 0.09 0.08 0.08 0.12 0.25 0.45 0.56 0.76 0.81 1.30 1.48 0.88 0.60 0.46 0.42 0.40 0.41 0.57 0.71 0.81 0.80 0.88 1.00 0.96 1.08 1.23 1.34 1.41 1.47 1.59 1.71 1.67 1.82 1.83 1.74 1.82 1.69 1.55 1.33 1.23
0.07 0.09 0.08 0.07 0.09 0.10 0.08 0.08 0.11 0.17 0.25 0.57 0.99 1.36 1.31 0.80 0.61 0.45 0.42 0.44 0.46 0.44 0.57 0.64 0.57 0.58 0.71 0.82 0.94 1.05 1.13 1.25 1.28 1.42 1.51 1.48 1.57 1.67 1.72 1.72 1.61 1.43 1.44 1.29
0.05 0.04 0.06 0.06 0.08 0.09 0.09 0.11 0.13 0.15 0.25 0.49 0.89 1.40 1.66 1.22 0.69 0.51 0.50 0.49 0.54 0.46 0.50 0.53 0.53 0.49 0.56 0.71 0.96 1.03 1.04 1.16 1.20 1.30 1.31 1.19 1.36 1.49 1.64 1.58 1.50 1.46 1.49 1.44
0.05 0.04 0.07 0.08 0.08 0.10 0.11 0.11 0.14 0.15 0.18 0.31 0.73 1.06 0.94 0.92 0.67 0.67 0.64 0.57 0.56 0.51 0.54 0.53 0.51 0.51 0.49 0.60 0.81 0.86 1.00 1.11 1.17 1.24 1.34 1.39 1.40 1.33 1.45 1.47 1.44 1.50 1.55 1.53
0.04 0.05 0.06 0.09 0.11 0.12 0.13 0.15 0.15 0.17 0.18 0.21 0.36 0.58 0.59 0.74 0.70 0.71 0.77 0.69 0.63 0.48 0.44 0.47 0.51 0.56 0.54 0.55 0.66 0.79 0.95 1.11 1.17 1.24 1.37 1.45 1.58 1.53 1.47 1.44 1.48 1.53 1.66 1.74
0.04 0.05 0.09 0.18 0.23 0.20 0.14 0.13 0.14 0.15 0.13 0.14 0.34 0.55 0.53 0.61 0.64 0.61 0.74 0.74 0.64 0.59 0.55 0.55 0.60 0.65 0.71 0.70 0.71 0.81 0.96 1.13 1.24 1.32 1.40 1.55 1.63 1.53 1.45 1.55 1.65 1.68 1.83 2.00
0.04 0.04 0.07 0.18 0.27 0.30 0.22 0.15 0.14 0.13 0.14 0.14 0.22 0.47 0.55 0.62 0.61 0.67 0.75 0.77 0.77 0.73 0.66 0.61 0.60 0.64 0.76 0.95 0.95 1.00 1.25 1.25 1.24 1.43 1.60 1.69 1.72 1.64 1.58 1.67 1.79 1.81 1.88 2.05
0.04 0.04 0.05 0.06 0.11 0.17 0.21 0.19 0.15 0.11 0.09 0.13 0.21 0.39 0.50 0.62 0.70 0.74 0.74 0.69 0.68 0.68 0.65 0.59 0.59 0.65 0.75 0.90 1.01 1.13 1.18 1.35 1.39 1.57 1.72 1.77 1.90 1.92 1.93 2.02 2.02 1.94 1.95 1.98
0.07 0.06 0.05 0.05 0.08 0.12 0.15 0.18 0.13 0.10 0.09 0.09 0.20 0.43 0.53 0.59 0.65 0.75 0.72 0.72 0.71 0.68 0.67 0.70 0.74 0.77 0.79 0.84 0.94 1.03 1.10 1.29 1.50 1.76 2.06 2.09 2.13 2.13 2.21 2.37 2.45 2.33 2.29 2.37
0.13 0.11 0.09 0.08 0.11 0.12 0.17 0.17 0.15 0.17 0.16 0.18 0.28 0.44 0.52 0.60 0.68 0.88 0.87 0.81 0.81 0.82 0.83 0.89 1.00 0.97 0.93 0.94 0.97 1.05 1.15 1.32 1.61 1.90 2.15 2.29 2.34 2.37 2.47 2.58 2.59 2.53 2.58 2.73
0.20 0.20 0.17 0.13 0.18 0.24 0.22 0.22 0.22 0.25 0.27 0.32 0.41 0.46 0.60 0.80 0.90 1.07 1.11 0.97 0.94 0.87 0.84 0.91 1.08 1.12 1.08 1.08 1.14 1.25 1.42 1.65 1.93 2.14 2.28 2.39 2.40 2.42 2.48 2.54 2.44 2.45 2.57 2.64
0.22 0.26 0.27 0.24 0.27 0.28 0.31 0.35 0.37 0.42 0.55 0.54 0.64 0.73 0.84 0.94 0.92 1.01 0.94 0.84 0.85 0.85 0.91 0.98 1.10 1.22 1.31 1.35 1.41 1.47 1.61 1.81 2.04 2.20 2.23 2.21 2.30 2.39 2.45 2.46 2.48 2.50 2.51 2.39
0.33 0.33 0.42 0.38 0.41 0.45 0.49 0.52 0.48 0.56 1.03 1.07 1.06 0.99 0.94 0.98 1.18 1.16 0.94 0.86 0.89 0.96 1.01 1.10 1.11 1.17 1.30 1.40 1.41 1.50 1.69 1.90 2.09 2.24 2.26 2.23 2.32 2.42 2.47 2.53 2.57 2.51 2.41 2.32
0.53 0.57 0.54 0.54 0.60 0.58 0.54 0.52 0.53 0.91 1.25 1.19 1.16 1.18 1.10 1.18 1.24 1.21 1.09 1.07 1.02 1.04 1.13 1.12 1.16 1.18 1.23 1.33 1.42 1.53 1.68 1.81 1.95 2.11 2.22 2.35 2.51 2.59 2.62 2.63 2.56 2.47 2.35 2.34
0.66 0.72 0.73 0.73 0.93 1.00 0.71 0.60 0.87 1.18 1.04 1.18 1.30 1.29 1.27 1.22 1.15 1.17 1.18 1.15 1.11 1.07 1.14 1.18 1.21 1.32 1.38 1.44 1.48 1.58 1.59 1.68 1.85 1.90 2.03 2.09 2.23 2.34 2.36 2.44 2.40 2.41 2.34 2.25
0.86 0.86 0.91 1.01 1.16 0.99 0.83 0.87 1.01 1.06 1.13 1.19 1.33 1.40 1.35 1.37 1.28 1.16 1.16 1.12 1.28 1.34 1.32 1.33 1.27 1.32 1.37 1.46 1.56 1.64 1.62 1.59 1.66 1.76 1.89 2.01 2.08 2.26 2.35 2.37 2.31 2.23 2.16 2.05
1.06 0.87 0.98 1.24 1.30 1.16 1.07 1.04 1.00 1.02 1.10 1.16 1.30 1.39 1.47 1.42 1.25 1.15 1.09 1.06 1.05 1.09 1.11 1.22 1.23 1.27 1.42 1.40 1.45 1.56 1.64 1.63 1.68 1.77 1.81 1.90 1.99 2.11 2.31 2.33 2.18 2.03 1.90 1.81
1.19 1.20 1.23 1.44 1.48 1.27 1.16 1.11 1.17 1.17 1.14 1.16 1.24 1.28 1.34 1.28 1.19 1.17 1.12 1.04 1.01 0.97 0.96 1.01 1.06 1.12 1.18 1.20 1.24 1.34 1.46 1.52 1.52 1.51 1.49 1.52 1.68 1.84 1.99 2.02 1.94 1.77 1.66 1.74
1.12 1.36 1.53 1.61 1.43 1.44 1.43 1.33 1.34 1.44 1.42 1.37 1.39 1.47 1.43 1.25 1.16 1.10 1.02 0.95 0.91 0.85 0.81 0.88 0.94 0.97 1.02 1.06 1.15 1.26 1.44 1.59 1.61 1.53 1.43 1.41 1.41 1.48 1.67 1.87 1.93 1.79 1.57 1.60

GEFSCGP_prec_meanprecacc_270.txt.gz
Total_Precipitation_Accumulation
0.01 0.01 0.01 0.02 0.03 0.04 0.08 0.16 0.24 0.25 0.23 0.33 0.50 0.76 0.90 0.88 0.92 1.06 1.17 1.36 1.40 1.44 1.72 2.19 2.84 3.52 4.33 5.44 6.10 6.24 5.99 5.30 4.80 4.39 4.14 3.87 3.62 3.35 2.88 2.50 2.27 2.16 2.04 1.99
0.01 0.03 0.03 0.03 0.03 0.04 0.07 0.14 0.23 0.22 0.18 0.22 0.47 0.85 0.98 0.99 1.05 1.02 1.09 1.17 1.10 1.26 1.60 2.20 2.97 3.78 4.46 5.00 5.36 5.45 5.08 4.33 3.84 3.60 3.54 3.28 3.09 2.78 2.57 2.35 2.31 2.00 1.92 1.95
0.03 0.04 0.02 0.02 0.03 0.05 0.09 0.11 0.18 0.22 0.19 0.23 0.46 1.01 1.24 1.13 1.10 1.07 0.97 0.95 1.05 1.28 1.81 2.55 3.36 4.13 4.45 4.48 4.27 3.97 3.79 3.40 3.29 3.24 3.06 2.84 2.81 2.55 2.39 2.18 2.09 1.80 1.63 1.64
0.02 0.04 0.03 0.03 0.05 0.06 0.10 0.09 0.08 0.10 0.17 0.40 0.56 1.11 1.30 1.28 1.21 1.06 1.04 1.05 1.15 1.43 1.95 2.64 3.18 3.42 3.56 3.50 3.21 3.02 2.95 2.88 2.82 2.74 2.64 2.35 2.22 2.20 2.05 1.97 1.99 1.86 1.66 1.64
0.03 0.04 0.05 0.05 0.05 0.06 0.07 0.06 0.06 0.11 0.23 0.44 0.60 0.95 1.32 1.30 1.37 0.95 0.81 0.90 1.00 1.24 1.52 1.72 1.92 2.09 2.22 2.25 2.41 2.48 2.61 2.73 2.64 2.58 2.57 2.49 2.20 2.16 2.13 2.12 2.22 2.08 1.86 1.67
0.03 0.03 0.04 0.04 0.04 0.05 0.05 0.07 0.14 0.25 0.43 0.80 0.82 1.00 1.34 1.33 1.23 0.83 0.62 0.63 0.80 0.91 0.97 1.06 1.15 1.27 1.50 1.56 1.78 1.99 2.11 2.26 2.43 2.47 2.31 2.23 2.18 2.22 2.26 2.20 2.02 1.83 1.70 1.59
0.10 0.08 0.07 0.07 0.07 0.07 0.07 0.13 0.38 0.73 1.08 1.14 0.72 0.84 1.24 1.18 0.86 0.59 0.49 0.46 0.49 0.67 0.81 0.94 1.05 1.14 1.35 1.31 1.39 1.62 1.68 1.70 1.86 1.91 1.88 1.94 2.09 2.14 2.02 1.90 1.82 1.66 1.42 1.40
0.15 0.15 0.10 0.08 0.09 0.08 0.08 0.12 0.25 0.45 0.57 0.76 0.82 1.30 1.48 0.88 0.60 0.46 0.42 0.41 0.42 0.58 0.72 0.81 0.80 0.88 1.01 1.01 1.15 1.27 1.34 1.41 1.48 1.60 1.72 1.69 1.84 1.85 1.76 1.83 1.70 1.56 1.35 1.25
0.07 0.09 0.08 0.07 0.09 0.10 0.09 0.08 0.12 0.17 0.25 0.57 0.99 1.36 1.31 0.80 0.61 0.45 0.43 0.45 0.47 0.45 0.58 0.64 0.58 0.58 0.73 0.86 0.99 1.07 1.14 1.26 1.30 1.44 1.52 1.50 1.60 1.69 1.74 1.75 1.63 1.46 1.47 1.31
0.05 0.04 0.06 0.06 0.08 0.10 0.09 0.12 0.14 0.15 0.25 0.49 0.90 1.40 1.67 1.22 0.69 0.52 0.50 0.50 0.55 0.47 0.50 0.54 0.53 0.49 0.58 0.75 1.01 1.07 1.08 1.21 1.23 1.32 1.34 1.22 1.39 1.53 1.68 1.63 1.55 1.50 1.52 1.47
0.05 0.04 0.07 0.08 0.08 0.10 0.11 0.12 0.14 0.16 0.18 0.31 0.74 1.06 0.94 0.92 0.67 0.67 0.65 0.57 0.56 0.52 0.55 0.53 0.52 0.51 0.50 0.63 0.85 0.91 1.05 1.16 1.21 1.28 1.39 1.44 1.44 1.39 1.51 1.54 1.52 1.56 1.60 1.57
0.04 0.05 0.06 0.10 0.11 0.13 0.14 0.15 0.15 0.17 0.18 0.21 0.36 0.59 0.59 0.74 0.70 0.71 0.77 0.70 0.64 0.48 0.45 0.48 0.52 0.57 0.54 0.57 0.69 0.83 1.00 1.16 1.22 1.29 1.42 1.51 1.65 1.61 1.55 1.53 1.57 1.61 1.73 1.80
0.04 0.05 0.09 0.18 0.24 0.20 0.14 0.13 0.14 0.15 0.14 0.15 0.34 0.55 0.53 0.61 0.65 0.62 0.75 0.75 0.64 0.59 0.55 0.55 0.61 0.65 0.71 0.71 0.73 0.83 1.01 1.21 1.33 1.40 1.49 1.63 1.71 1.61 1.53 1.64 1.73 1.78 1.92 2.07
0.04 0.04 0.07 0.18 0.27 0.30 0.22 0.15 0.14 0.13 0.14 0.14 0.23 0.47 0.55 0.63 0.61 0.68 0.75 0.77 0.77 0.74 0.66 0.62 0.61 0.65 0.76 0.96 0.97 1.01 1.28 1.32 1.34 1.54 1.73 1.80 1.82 1.73 1.67 1.76 1.88 1.91 1.97 2.13
0.04 0.04 0.05 0.06 0.11 0.17 0.21 0.19 0.15 0.11 0.09 0.13 0.21 0.39 0.50 0.62 0.71 0.75 0.74 0.70 0.68 0.69 0.67 0.61 0.60 0.66 0.77 0.92 1.03 1.15 1.21 1.40 1.48 1.69 1.87 1.93 2.01 2.02 2.02 2.12 2.12 2.04 2.06 2.07
0.08 0.06 0.05 0.05 0.08 0.12 0.15 0.18 0.13 0.10 0.09 0.10 0.20 0.43 0.54 0.60 0.65 0.75 0.72 0.72 0.71 0.68 0.70 0.75 0.78 0.79 0.81 0.87 0.97 1.07 1.14 1.35 1.58 1.87 2.16 2.20 2.25 2.23 2.32 2.46 2.52 2.41 2.37 2.45
0.13 0.11 0.09 0.08 0.11 0.12 0.17 0.17 0.15 0.17 0.16 0.19 0.29 0.44 0.53 0.60 0.68 0.88 0.87 0.81 0.81 0.82 0.84 0.91 1.02 0.99 0.95 0.97 1.00 1.10 1.22 1.41 1.70 1.98 2.23 2.37 2.43 2.47 2.56 2.67 2.68 2.62 2.66 2.80
0.20 0.20 0.17 0.13 0.18 0.24 0.22 0.22 0.22 0.25 0.28 0.32 0.41 0.46 0.60 0.81 0.91 1.07 1.11 0.98 0.94 0.88 0.85 0.92 1.09 1.13 1.10 1.11 1.17 1.30 1.49 1.75 2.02 2.21 2.35 2.45 2.48 2.50 2.56 2.63 2.54 2.57 2.70 2.75
0.22 0.26 0.27 0.24 0.27 0.28 0.32 0.35 0.37 0.42 0.55 0.55 0.64 0.73 0.84 0.94 0.93 1.01 0.95 0.85 0.85 0.86 0.91 0.99 1.11 1.23 1.33 1.37 1.44 1.52 1.67 1.88 2.10 2.26 2.30 2.28 2.37 2.48 2.54 2.56 2.58 2.60 2.62 2.50
0.33 0.33 0.42 0.38 0.41 0.45 0.49 0.52 0.48 0.56 1.03 1.07 1.06 0.99 0.95 0.99 1.20 1.17 0.95 0.86 0.90 0.97 1.03 1.11 1.13 1.18 1.32 1.44 1.46 1.57 1.75 1.97 2.16 2.31 2.33 2.30 2.41 2.52 2.57 2.63 2.67 2.59 2.49 2.43
0.54 0.57 0.54 0.55 0.60 0.58 0.55 0.52 0.54 0.91 1.25 1.19 1.17 1.19 1.11 1.18 1.25 1.22 1.10 1.08 1.03 1.05 1.15 1.15 1.19 1.21 1.27 1.38 1.48 1.61 1.73 1.86 2.00 2.17 2.30 2.45 2.62 2.68 2.69 2.70 2.62 2.53 2.43 2.45
0.67 0.72 0.73 0.74 0.93 1.01 0.72 0.61 0.88 1.18 1.05 1.18 1.31 1.29 1.28 1.24 1.16 1.18 1.19 1.17 1.14 1.09 1.17 1.21 1.24 1.37 1.44 1.50 1.54 1.63 1.64 1.73 1.91 1.97 2.10 2.18 2.32 2.41 2.43 2.52 2.47 2.50 2.45 2.36
0.87 0.87 0.92 1.02 1.16 1.00 0.84 0.88 1.01 1.06 1.15 1.21 1.34 1.42 1.37 1.39 1.30 1.18 1.19 1.15 1.31 1.37 1.36 1.37 1.31 1.36 1.42 1.51 1.60 1.68 1.67 1.64 1.71 1.82 1.96 2.08 2.14 2.30 2.39 2.45 2.41 2.33 2.26 2.13
1.07 0.88 0.99 1.25 1.31 1.17 1.09 1.05 1.01 1.03 1.13 1.20 1.34 1.43 1.50 1.45 1.27 1.18 1.13 1.09 1.09 1.15 1.16 1.27 1.26 1.30 1.45 1.43 1.47 1.59 1.66 1.65 1.71 1.80 1.83 1.92 2.01 2.13 2.34 2.39 2.25 2.09 1.94 1.86
1.20 1.22 1.25 1.45 1.49 1.29 1.21 1.16 1.20 1.18 1.16 1.18 1.28 1.34 1.40 1.33 1.24 1.22 1.16 1.08 1.05 1.02 1.01 1.05 1.10 1.15 1.21 1.23 1.26 1.36 1.48 1.54 1.53 1.52 1.50 1.54 1.70 1.86 2.02 2.06 1.98 1.81 1.71 1.80
1.13 1.38 1.55 1.64 1.45 1.47 1.49 1.39 1.37 1.46 1.44 1.39 1.42 1.52 1.50 1.33 1.23 1.17 1.06 0.98 0.94 0.88 0.84 0.91 0.97 1.00 1.04 1.08 1.17 1.27 1.47 1.61 1.62 1.54 1.44 1.43 1.43 1.50 1.69 1.90 1.97 1.83 1.62 1.66